Tracking 30313 objects as of 21-Apr-2025
HD Live streaming from Space Station
objects crossing your sky now

FLOCK 4Y 13

Track FLOCK 4Y 13 now!
10-day predictions
FLOCK 4Y 13 is classified as:


NORAD ID: 55079
Int'l Code: 2023-001BY
Perigee: 402.1 km
Apogee: 411.7 km
Inclination: 97.4 °
Period: 92.6 minutes
Semi major axis: 6777 km
RCS: Unknown
Launch date: January 3, 2023
Source: United States (US)
Launch site: AIR FORCE EASTERN TEST RANGE (AFETR)
Your satellite tracking list
Your tracking list is empty




NASA's NSSDC Master Catalog

Two Line Element Set (TLE):
1 55079U 23001BY  25111.15109316  .00051796  00000-0  74688-3 0  9992
2 55079  97.3687 182.8352 0007088 149.2978 210.8693 15.55816576128188
Source of the keplerian elements: AFSPC